EJU24TG EDDL-LIMC

Flight info

Callsign EJU24TG
Flight time 1h 12m
Altitude 33000
Route DODEN1T DODEN Y852 NATOR DCT TRA DCT RIPUS DCT GERSA DCT SOSON DCT DEGAD DCT BASGO Z424 RIXUV RIXUV3E
Aircraft A320/M-SDE3FGHIRWY/LB1

Departure

Time 2026-05-07 11:01
Airport Düsseldorf Airport (EDDL)

Arrival

Time 2026-05-07 12:13
Airport Milan Malpensa International Airport (LIMC)
Time Latitude Longitude Altitude Speed Heading
2026-05-07 10:04 51.28044 6.76369 131 ft 0 kts 197°
2026-05-07 10:47 51.28067 6.76382 126 ft 4 kts 205°
2026-05-07 10:47 51.28088 6.76404 126 ft 4 kts 247°
2026-05-07 10:47 51.28089 6.76422 129 ft 0 kts 324°
2026-05-07 10:53 51.28095 6.76416 130 ft 3 kts 324°
2026-05-07 10:53 51.28119 6.76380 130 ft 7 kts 310°
2026-05-07 10:53 51.28154 6.76299 129 ft 11 kts 310°
2026-05-07 10:53 51.28216 6.76240 125 ft 8 kts
2026-05-07 10:54 51.28267 6.76308 126 ft 12 kts 51°
2026-05-07 10:54 51.28315 6.76410 126 ft 13 kts 55°
2026-05-07 10:54 51.28376 6.76544 124 ft 17 kts 52°
2026-05-07 10:54 51.28456 6.76708 126 ft 20 kts 52°
2026-05-07 10:55 51.28547 6.76898 126 ft 23 kts 53°
2026-05-07 10:55 51.28649 6.77112 126 ft 26 kts 53°
2026-05-07 10:55 51.28757 6.77342 127 ft 12 kts 52°
2026-05-07 10:55 51.28808 6.77446 127 ft 14 kts 52°
2026-05-07 10:56 51.28875 6.77587 124 ft 18 kts 53°
2026-05-07 10:56 51.28957 6.77759 128 ft 21 kts 53°
2026-05-07 10:56 51.29054 6.77961 129 ft 24 kts 53°
2026-05-07 10:56 51.29141 6.78140 135 ft 14 kts 52°
2026-05-07 10:57 51.29200 6.78265 139 ft 14 kts 51°
2026-05-07 10:57 51.29259 6.78388 144 ft 14 kts 54°
2026-05-07 10:57 51.29298 6.78474 148 ft 0 kts 53°
2026-05-07 10:58 51.29304 6.78487 148 ft 3 kts 53°
2026-05-07 10:58 51.29311 6.78503 149 ft 3 kts 54°
2026-05-07 10:58 51.29336 6.78547 151 ft 7 kts 40°
2026-05-07 10:58 51.29382 6.78573 152 ft 6 kts
2026-05-07 10:59 51.29419 6.78570 152 ft 4 kts 356°
2026-05-07 10:59 51.29446 6.78568 152 ft 3 kts 357°
2026-05-07 10:59 51.29488 6.78564 153 ft 8 kts 355°
2026-05-07 10:59 51.29530 6.78555 154 ft 4 kts 339°
2026-05-07 11:00 51.29535 6.78501 153 ft 11 kts 237°
2026-05-07 11:00 51.29525 6.78481 152 ft 0 kts 232°
2026-05-07 11:00 51.29522 6.78474 152 ft 9 kts 232°
2026-05-07 11:00 51.29300 6.78008 142 ft 92 kts 232°
2026-05-07 11:01 51.28778 6.76906 133 ft 153 kts 233°
2026-05-07 11:01 51.28086 6.75484 670 ft 160 kts 235°
2026-05-07 11:01 51.27428 6.74061 1537 ft 163 kts 236°
2026-05-07 11:01 51.26757 6.72563 2216 ft 165 kts 237°
2026-05-07 11:02 51.26090 6.71093 2906 ft 165 kts 236°
2026-05-07 11:02 51.25398 6.69610 3518 ft 171 kts 236°
2026-05-07 11:02 51.24643 6.67993 3882 ft 193 kts 236°
2026-05-07 11:02 51.23785 6.66164 4231 ft 218 kts 234°
2026-05-07 11:03 51.22700 6.64351 4622 ft 243 kts 212°
2026-05-07 11:03 51.21022 6.63533 5129 ft 265 kts 179°
2026-05-07 11:03 51.19147 6.63797 5991 ft 272 kts 173°
2026-05-07 11:03 51.17249 6.64125 6943 ft 275 kts 173°
2026-05-07 11:04 51.15410 6.64996 7857 ft 279 kts 151°
2026-05-07 11:04 51.13963 6.67018 8762 ft 285 kts 127°
2026-05-07 11:04 51.13174 6.69923 9669 ft 292 kts 101°
2026-05-07 11:04 51.13150 6.73205 10376 ft 305 kts 88°
2026-05-07 11:05 51.13289 6.76712 10702 ft 327 kts 87°
2026-05-07 11:05 51.13443 6.80344 11336 ft 336 kts 87°
2026-05-07 11:05 51.13599 6.84088 12147 ft 340 kts 88°
2026-05-07 11:05 51.13753 6.87890 12935 ft 345 kts 88°
2026-05-07 11:06 51.13902 6.91732 13700 ft 350 kts 88°
2026-05-07 11:06 51.14044 6.95634 14401 ft 354 kts 88°
2026-05-07 11:06 51.14181 6.99534 15111 ft 358 kts 88°
2026-05-07 11:06 51.14320 7.03524 15815 ft 361 kts 88°
2026-05-07 11:07 51.14459 7.07542 16518 ft 365 kts 88°
2026-05-07 11:07 51.14597 7.11548 17204 ft 368 kts 88°
2026-05-07 11:07 51.14740 7.15653 17892 ft 372 kts 88°
2026-05-07 11:07 51.14887 7.19797 18543 ft 375 kts 88°
2026-05-07 11:08 51.15030 7.23915 19132 ft 378 kts 88°
2026-05-07 11:08 51.15173 7.28128 19751 ft 380 kts 88°
2026-05-07 11:08 51.15314 7.32351 20391 ft 383 kts 88°
2026-05-07 11:08 51.15418 7.36611 21016 ft 385 kts 92°
2026-05-07 11:09 51.15094 7.40834 21608 ft 386 kts 104°
2026-05-07 11:09 51.14226 7.44888 22209 ft 387 kts 116°
2026-05-07 11:09 51.12873 7.48538 22794 ft 388 kts 128°
2026-05-07 11:09 51.11050 7.51750 23380 ft 391 kts 137°
2026-05-07 11:10 51.09069 7.54751 23909 ft 394 kts 136°
2026-05-07 11:10 51.07104 7.57743 24403 ft 396 kts 136°
2026-05-07 11:10 51.05106 7.60796 24897 ft 398 kts 136°
2026-05-07 11:10 51.03096 7.63869 25388 ft 401 kts 136°
2026-05-07 11:11 51.01079 7.66939 25854 ft 403 kts 136°
2026-05-07 11:11 50.99047 7.70023 26314 ft 405 kts 136°
2026-05-07 11:11 50.96970 7.73071 26762 ft 407 kts 141°
2026-05-07 11:11 50.94675 7.75623 27184 ft 409 kts 148°
2026-05-07 11:12 50.92248 7.78009 27606 ft 412 kts 148°
2026-05-07 11:12 50.89798 7.80417 28022 ft 414 kts 148°
2026-05-07 11:12 50.87340 7.82839 28433 ft 416 kts 148°
2026-05-07 11:12 50.84869 7.85274 28832 ft 419 kts 148°
2026-05-07 11:13 50.82413 7.87690 29224 ft 421 kts 148°
2026-05-07 11:13 50.79919 7.90137 29618 ft 423 kts 149°
2026-05-07 11:13 50.77398 7.92599 29995 ft 426 kts 149°
2026-05-07 11:13 50.74868 7.95064 30316 ft 428 kts 149°
2026-05-07 11:14 50.72320 7.97544 30618 ft 430 kts 149°
2026-05-07 11:14 50.69757 8.00045 30913 ft 432 kts 150°
2026-05-07 11:14 50.67220 8.02518 31214 ft 434 kts 150°
2026-05-07 11:14 50.64644 8.05024 31511 ft 436 kts 150°
2026-05-07 11:15 50.61992 8.07320 31914 ft 433 kts 158°
2026-05-07 11:15 50.59173 8.08939 32337 ft 429 kts 167°
2026-05-07 11:15 50.56244 8.09842 32756 ft 425 kts 176°
2026-05-07 11:15 50.53339 8.10227 32993 ft 425 kts 177°
2026-05-07 11:16 50.47500 8.10977 33035 ft 421 kts 177°
2026-05-07 11:16 50.42617 8.11624 33035 ft 423 kts 177°
2026-05-07 11:17 50.36780 8.12399 33040 ft 423 kts 177°
2026-05-07 11:17 50.30891 8.13168 33039 ft 423 kts 177°
2026-05-07 11:18 50.25025 8.13924 33037 ft 422 kts 177°
2026-05-07 11:18 50.19185 8.14675 33036 ft 422 kts 177°
2026-05-07 11:19 50.13305 8.15441 33032 ft 422 kts 177°
2026-05-07 11:19 50.07474 8.16237 33029 ft 423 kts 177°
2026-05-07 11:20 50.01602 8.17076 33029 ft 423 kts 177°
2026-05-07 11:20 49.95768 8.17905 33028 ft 423 kts 177°
2026-05-07 11:21 49.89888 8.18716 33032 ft 423 kts 177°
2026-05-07 11:21 49.84023 8.19526 33035 ft 422 kts 177°
2026-05-07 11:22 49.78202 8.20317 33030 ft 422 kts 177°
2026-05-07 11:22 49.72347 8.21117 33034 ft 421 kts 177°
2026-05-07 11:23 49.66498 8.21930 33041 ft 421 kts 177°
2026-05-07 11:23 49.60703 8.22731 33048 ft 420 kts 177°
2026-05-07 11:24 49.54877 8.23527 33047 ft 420 kts 176°
2026-05-07 11:24 49.49072 8.24319 33053 ft 420 kts 177°
2026-05-07 11:25 49.43229 8.25113 33049 ft 419 kts 177°
2026-05-07 11:25 49.37442 8.25899 33042 ft 419 kts 177°
2026-05-07 11:26 49.31615 8.26690 33037 ft 420 kts 176°
2026-05-07 11:26 49.25812 8.27468 33030 ft 420 kts 177°
2026-05-07 11:27 49.19985 8.28244 33022 ft 420 kts 176°
2026-05-07 11:27 49.14149 8.29035 33014 ft 421 kts 177°
2026-05-07 11:28 49.08342 8.29821 33016 ft 422 kts 177°
2026-05-07 11:28 49.02481 8.30599 33016 ft 422 kts 177°
2026-05-07 11:29 48.96633 8.31261 33023 ft 422 kts 180°
2026-05-07 11:29 48.90747 8.31380 33031 ft 422 kts 182°
2026-05-07 11:30 48.84865 8.31308 33035 ft 422 kts 182°
2026-05-07 11:30 48.79008 8.31309 33040 ft 423 kts 181°
2026-05-07 11:31 48.73111 8.31388 33043 ft 423 kts 181°
2026-05-07 11:31 48.67205 8.31478 33043 ft 423 kts 181°
2026-05-07 11:32 48.58412 8.31600 33044 ft 423 kts 182°
2026-05-07 11:33 48.52529 8.31670 33048 ft 423 kts 182°
2026-05-07 11:33 48.46712 8.31729 33041 ft 407 kts 182°
2026-05-07 11:34 48.41126 8.31812 33041 ft 398 kts 182°
2026-05-07 11:34 48.35588 8.31889 33040 ft 398 kts 182°
2026-05-07 11:35 48.30058 8.31956 33043 ft 397 kts 182°
2026-05-07 11:35 48.24530 8.32017 33049 ft 397 kts 182°
2026-05-07 11:36 48.19023 8.32086 33038 ft 397 kts 182°
2026-05-07 11:36 48.13504 8.32957 33041 ft 400 kts 174°
2026-05-07 11:37 48.08011 8.34302 33036 ft 400 kts 174°
2026-05-07 11:37 48.02518 8.35637 33049 ft 400 kts 174°
2026-05-07 11:38 47.97028 8.36963 33042 ft 399 kts 174°
2026-05-07 11:38 47.91569 8.38269 33031 ft 399 kts 174°
2026-05-07 11:39 47.86082 8.39588 33034 ft 399 kts 174°
2026-05-07 11:39 47.80594 8.40902 33031 ft 400 kts 174°
2026-05-07 11:40 47.75104 8.42220 33032 ft 399 kts 174°
2026-05-07 11:40 47.69602 8.43535 33038 ft 406 kts 173°
2026-05-07 11:41 47.63920 8.44610 33048 ft 414 kts 176°
2026-05-07 11:41 47.58167 8.45376 33053 ft 415 kts 177°
2026-05-07 11:42 47.52413 8.46136 33056 ft 415 kts 177°
2026-05-07 11:42 47.46649 8.46962 33055 ft 416 kts 176°
2026-05-07 11:43 47.40886 8.47823 33049 ft 416 kts 176°
2026-05-07 11:43 47.35122 8.48681 33049 ft 416 kts 177°
2026-05-07 11:44 47.29398 8.49513 33045 ft 416 kts 177°
2026-05-07 11:44 47.23644 8.50341 33045 ft 416 kts 177°
2026-05-07 11:45 47.17883 8.51186 33019 ft 416 kts 177°
2026-05-07 11:45 47.12125 8.52025 33016 ft 416 kts 177°
2026-05-07 11:46 47.06366 8.52860 33041 ft 416 kts 177°
2026-05-07 11:46 47.00605 8.53692 33017 ft 416 kts 177°
2026-05-07 11:46 46.97732 8.54106 32742 ft 416 kts 177°
2026-05-07 11:47 46.94787 8.54526 32476 ft 431 kts 177°
2026-05-07 11:47 46.91784 8.54956 32210 ft 436 kts 176°
2026-05-07 11:47 46.88763 8.55392 31944 ft 436 kts 176°
2026-05-07 11:47 46.85750 8.55828 31679 ft 434 kts 176°
2026-05-07 11:48 46.82749 8.56264 31407 ft 432 kts 176°
2026-05-07 11:48 46.79763 8.56694 31176 ft 430 kts 176°
2026-05-07 11:48 46.76785 8.57119 30913 ft 429 kts 176°
2026-05-07 11:48 46.73828 8.57539 30657 ft 427 kts 176°
2026-05-07 11:49 46.70876 8.57961 30405 ft 425 kts 176°
2026-05-07 11:49 46.67938 8.58383 30149 ft 423 kts 176°
2026-05-07 11:49 46.65032 8.58798 29585 ft 419 kts 176°
2026-05-07 11:49 46.62144 8.59207 29032 ft 414 kts 176°
2026-05-07 11:50 46.59294 8.59614 28487 ft 410 kts 176°
2026-05-07 11:50 46.56466 8.60019 27941 ft 406 kts 176°
2026-05-07 11:50 46.53671 8.60414 27419 ft 402 kts 176°
2026-05-07 11:50 46.50902 8.60806 26899 ft 398 kts 176°
2026-05-07 11:51 46.48190 8.61181 26403 ft 394 kts 178°
2026-05-07 11:51 46.45471 8.61104 25910 ft 388 kts 189°
2026-05-07 11:51 46.42844 8.60319 25429 ft 383 kts 198°
2026-05-07 11:51 46.40247 8.59296 24577 ft 390 kts 196°
2026-05-07 11:52 46.37612 8.58379 24100 ft 387 kts 194°
2026-05-07 11:52 46.34988 8.57533 23627 ft 385 kts 194°
2026-05-07 11:52 46.32401 8.56717 23094 ft 382 kts 194°
2026-05-07 11:52 46.29814 8.55892 22619 ft 378 kts 194°
2026-05-07 11:53 46.27249 8.55056 22141 ft 375 kts 194°
2026-05-07 11:53 46.24724 8.54212 21657 ft 371 kts 195°
2026-05-07 11:53 46.22208 8.53360 21176 ft 369 kts 195°
2026-05-07 11:53 46.19749 8.52525 20704 ft 366 kts 195°
2026-05-07 11:54 46.17266 8.51683 20213 ft 364 kts 195°
2026-05-07 11:54 46.14807 8.50852 19730 ft 362 kts 195°
2026-05-07 11:54 46.12320 8.50293 19248 ft 362 kts 185°
2026-05-07 11:54 46.09803 8.50506 18781 ft 363 kts 172°
2026-05-07 11:55 46.07365 8.51496 18379 ft 362 kts 161°
2026-05-07 11:55 46.05031 8.52770 17929 ft 360 kts 161°
2026-05-07 11:55 46.02695 8.54034 17500 ft 356 kts 161°
2026-05-07 11:55 46.00375 8.55279 17099 ft 353 kts 161°
2026-05-07 11:56 45.98100 8.56495 16688 ft 351 kts 161°
2026-05-07 11:56 45.95815 8.57718 16287 ft 349 kts 161°
2026-05-07 11:56 45.93549 8.58937 15975 ft 343 kts 161°
2026-05-07 11:56 45.91372 8.60108 15852 ft 332 kts 161°
2026-05-07 11:57 45.89318 8.61563 15659 ft 326 kts 148°
2026-05-07 11:57 45.87515 8.63556 15337 ft 325 kts 142°
2026-05-07 11:57 45.85785 8.65572 14989 ft 323 kts 142°
2026-05-07 11:57 45.84036 8.67603 14638 ft 322 kts 142°
2026-05-07 11:58 45.82298 8.69617 14289 ft 320 kts 142°
2026-05-07 11:58 45.80564 8.71628 13962 ft 318 kts 142°
2026-05-07 11:58 45.78870 8.73587 13592 ft 317 kts 142°
2026-05-07 11:58 45.77159 8.75564 13256 ft 314 kts 143°
2026-05-07 11:59 45.75337 8.77264 12881 ft 310 kts 153°
2026-05-07 11:59 45.73445 8.78721 12622 ft 306 kts 153°
2026-05-07 11:59 45.71595 8.80143 12360 ft 304 kts 153°
2026-05-07 11:59 45.69741 8.81567 12029 ft 301 kts 153°
2026-05-07 12:00 45.67888 8.82986 11623 ft 301 kts 153°
2026-05-07 12:00 45.66026 8.84411 11235 ft 301 kts 153°
2026-05-07 12:00 45.64231 8.85787 11105 ft 291 kts 153°
2026-05-07 12:00 45.62466 8.87129 10974 ft 281 kts 156°
2026-05-07 12:01 45.60638 8.88007 10744 ft 274 kts 171°
2026-05-07 12:01 45.58774 8.88511 10476 ft 271 kts 171°
2026-05-07 12:01 45.56933 8.89011 10200 ft 268 kts 171°
2026-05-07 12:01 45.55130 8.89501 9893 ft 266 kts 171°
2026-05-07 12:02 45.53306 8.89995 9571 ft 264 kts 171°
2026-05-07 12:02 45.51502 8.90480 9242 ft 263 kts 171°
2026-05-07 12:02 45.49707 8.90963 8883 ft 261 kts 171°
2026-05-07 12:02 45.47946 8.91440 8539 ft 260 kts 170°
2026-05-07 12:03 45.46174 8.91923 8088 ft 257 kts 170°
2026-05-07 12:03 45.44418 8.92403 7647 ft 256 kts 170°
2026-05-07 12:03 45.42698 8.92876 7472 ft 246 kts 170°
2026-05-07 12:03 45.41046 8.93326 7005 ft 242 kts 170°
2026-05-07 12:04 45.39388 8.93773 6607 ft 242 kts 170°
2026-05-07 12:04 45.37764 8.94209 6439 ft 233 kts 171°
2026-05-07 12:04 45.36184 8.94633 6161 ft 229 kts 170°
2026-05-07 12:04 45.34619 8.95056 5841 ft 228 kts 170°
2026-05-07 12:05 45.33056 8.95250 5537 ft 224 kts 191°
2026-05-07 12:05 45.32094 8.94764 5330 ft 221 kts 214°
2026-05-07 12:05 45.30965 8.92533 5045 ft 211 kts 256°
2026-05-07 12:05 45.30715 8.90455 4922 ft 215 kts 263°
2026-05-07 12:06 45.30544 8.88343 4795 ft 215 kts 263°
2026-05-07 12:06 45.30496 8.86936 4709 ft 215 kts 274°
2026-05-07 12:06 45.30840 8.84874 4583 ft 216 kts 294°
2026-05-07 12:06 45.31665 8.83099 4451 ft 216 kts 314°
2026-05-07 12:07 45.32878 8.81836 4327 ft 217 kts 334°
2026-05-07 12:07 45.34330 8.81226 4249 ft 218 kts 348°
2026-05-07 12:07 45.35798 8.80828 4178 ft 213 kts 348°
2026-05-07 12:07 45.37204 8.80446 4095 ft 198 kts 348°
2026-05-07 12:08 45.38539 8.80081 4007 ft 193 kts 348°
2026-05-07 12:08 45.39855 8.79720 4001 ft 192 kts 348°
2026-05-07 12:08 45.41153 8.79365 4003 ft 192 kts 348°
2026-05-07 12:08 45.42467 8.79005 4005 ft 192 kts 348°
2026-05-07 12:09 45.43780 8.78645 4035 ft 192 kts 348°
2026-05-07 12:09 45.45092 8.78285 3953 ft 190 kts 348°
2026-05-07 12:09 45.46365 8.77936 3758 ft 183 kts 349°
2026-05-07 12:09 45.47610 8.77594 3530 ft 181 kts 349°
2026-05-07 12:10 45.48827 8.77260 3299 ft 179 kts 349°
2026-05-07 12:10 45.50044 8.76925 3047 ft 176 kts 349°
2026-05-07 12:10 45.51246 8.76595 2802 ft 175 kts 349°
2026-05-07 12:10 45.52429 8.76270 2561 ft 170 kts 349°
2026-05-07 12:11 45.53556 8.75960 2339 ft 160 kts 349°
2026-05-07 12:11 45.54604 8.75671 2142 ft 151 kts 349°
2026-05-07 12:11 45.55628 8.75389 1940 ft 148 kts 349°
2026-05-07 12:11 45.56638 8.75113 1751 ft 147 kts 349°
2026-05-07 12:12 45.57639 8.74840 1545 ft 146 kts 349°
2026-05-07 12:12 45.58622 8.74564 1337 ft 145 kts 349°
2026-05-07 12:12 45.59607 8.74294 1139 ft 143 kts 349°
2026-05-07 12:12 45.60580 8.74023 939 ft 142 kts 349°
2026-05-07 12:13 45.61549 8.73755 776 ft 141 kts 349°
2026-05-07 12:13 45.62418 8.73515 738 ft 106 kts 349°
2026-05-07 12:13 45.62899 8.73383 736 ft 35 kts 349°
2026-05-07 12:13 45.63108 8.73278 735 ft 32 kts 327°
2026-05-07 12:14 45.63214 8.73155 736 ft 16 kts 313°
2026-05-07 12:14 45.63286 8.73017 736 ft 18 kts 304°
2026-05-07 12:14 45.63346 8.72890 736 ft 15 kts 303°
2026-05-07 12:14 45.63396 8.72783 735 ft 12 kts 304°
2026-05-07 12:15 45.63458 8.72706 736 ft 12 kts 337°
2026-05-07 12:15 45.63543 8.72678 736 ft 14 kts 349°
2026-05-07 12:15 45.63643 8.72652 736 ft 16 kts 349°
2026-05-07 12:15 45.63761 8.72622 736 ft 19 kts 350°
2026-05-07 12:16 45.63897 8.72582 736 ft 19 kts 348°
2026-05-07 12:16 45.63987 8.72556 736 ft 11 kts 348°
2026-05-07 12:16 45.64073 8.72524 736 ft 15 kts 344°
2026-05-07 12:16 45.64189 8.72491 735 ft 17 kts 349°
2026-05-07 12:17 45.64308 8.72457 736 ft 16 kts 349°
2026-05-07 12:17 45.64398 8.72431 736 ft 9 kts 348°
2026-05-07 12:17 45.64445 8.72450 735 ft 5 kts 53°
2026-05-07 12:17 45.64460 8.72520 736 ft 10 kts 78°
2026-05-07 12:18 45.64479 8.72619 736 ft 9 kts 58°
2026-05-07 12:18 45.64521 8.72645 736 ft 7 kts 359°
2026-05-07 12:18 45.64578 8.72632 736 ft 9 kts 349°
2026-05-07 12:18 45.64650 8.72612 736 ft 12 kts 349°
2026-05-07 12:19 45.64728 8.72591 736 ft 10 kts 348°
2026-05-07 12:19 45.64786 8.72574 736 ft 6 kts 349°
2026-05-07 12:19 45.64822 8.72560 736 ft 4 kts 325°
2026-05-07 12:19 45.64838 8.72525 736 ft 3 kts 288°
2026-05-07 12:20 45.64838 8.72492 736 ft 4 kts 264°
2026-05-07 12:20 45.64834 8.72463 736 ft 1 kts 260°
2026-05-07 12:20 45.64833 8.72453 736 ft 1 kts 259°
2026-05-07 12:20 45.64832 8.72447 736 ft 0 kts 259°